Time,TemperatureF,DewpointF,PressureIn,WindDirection,WindDirectionDegrees,WindSpeedMPH,WindSpeedGustMPH,Humidity,HourlyPrecipIn,Conditions,Clouds,dailyrainin,SoftwareType,DateUTC
2013-10-15 00:01:00,60.6,58.0,29.98,WSW,245,1.0,3.0,91,0.00,,,0.01,Wunderground v.1.15,2013-10-15 04:01:00,
2013-10-15 00:03:00,60.6,58.0,29.98,SW,234,1.0,3.0,91,0.00,,,0.00,Wunderground v.1.15,2013-10-15 04:03:00,
2013-10-15 00:05:00,60.6,57.7,29.98,SW,234,1.0,3.0,90,0.00,,,0.00,Wunderground v.1.15,2013-10-15 04:05:00,
2013-10-15 00:06:00,60.6,57.7,29.98,WSW,237,2.0,3.0,90,0.00,,,0.00,Wunderground v.1.15,2013-10-15 04:06:00,
2013-10-15 00:12:00,60.6,57.7,29.98,West,272,1.0,3.0,90,0.00,,,0.00,Wunderground v.1.15,2013-10-15 04:12:00,
2013-10-15 00:14:00,60.6,58.0,29.98,West,272,1.0,3.0,91,0.00,,,0.00,Wunderground v.1.15,2013-10-15 04:14:00,
2013-10-15 00:19:00,60.5,57.9,29.98,WSW,244,1.0,3.0,91,0.00,,,0.00,Wunderground v.1.15,2013-10-15 04:19:00,
2013-10-15 00:24:00,60.5,57.9,29.98,WSW,244,1.0,1.0,91,0.00,,,0.00,Wunderground v.1.15,2013-10-15 04:24:00,
2013-10-15 00:30:00,60.5,57.9,29.97,West,270,0.0,1.0,91,0.00,,,0.00,Wunderground v.1.15,2013-10-15 04:30:00,
2013-10-15 00:36:00,60.4,57.8,29.97,WNW,290,1.0,2.0,91,0.00,,,0.00,Wunderground v.1.15,2013-10-15 04:36:00,
2013-10-15 00:42:00,60.4,57.5,29.97,West,281,1.0,1.0,90,0.00,,,0.00,Wunderground v.1.15,2013-10-15 04:42:00,
2013-10-15 00:48:00,60.3,57.4,29.97,WSW,238,1.0,1.0,90,0.00,,,0.00,Wunderground v.1.15,2013-10-15 04:48:00,
2013-10-15 00:54:00,60.3,57.4,29.97,West,263,1.0,3.0,90,0.00,,,0.00,Wunderground v.1.15,2013-10-15 04:54:00,
2013-10-15 00:59:00,60.3,57.4,29.97,NW,311,1.0,4.0,90,0.00,,,0.00,Wunderground v.1.15,2013-10-15 04:59:00,
2013-10-15 01:05:00,60.3,57.4,29.97,West,266,1.0,2.0,90,0.00,,,0.00,Wunderground v.1.15,2013-10-15 05:05:00,
2013-10-15 01:11:00,60.2,57.3,29.97,West,266,1.0,1.0,90,0.00,,,0.00,Wunderground v.1.15,2013-10-15 05:11:00,
2013-10-15 01:16:00,60.2,57.6,29.97,WNW,302,1.0,1.0,91,0.00,,,0.00,Wunderground v.1.15,2013-10-15 05:16:00,
2013-10-15 01:22:00,60.2,57.3,29.97,NW,315,0.0,2.0,90,0.00,,,0.00,Wunderground v.1.15,2013-10-15 05:22:00,
2013-10-15 01:28:00,60.2,57.3,29.97,West,267,1.0,2.0,90,0.00,,,0.00,Wunderground v.1.15,2013-10-15 05:28:00,
2013-10-15 01:34:00,60.1,57.5,29.97,West,277,1.0,1.0,91,0.00,,,0.00,Wunderground v.1.15,2013-10-15 05:34:00,
2013-10-15 01:39:00,60.1,57.5,29.96,WNW,292,0.0,1.0,91,0.00,,,0.00,Wunderground v.1.15,2013-10-15 05:39:00,
2013-10-15 01:45:00,60.0,57.4,29.97,NW,305,0.0,3.0,91,0.00,,,0.00,Wunderground v.1.15,2013-10-15 05:45:00,
2013-10-15 01:50:00,60.0,57.4,29.96,NW,315,1.0,1.0,91,0.00,,,0.00,Wunderground v.1.15,2013-10-15 05:50:00,
2013-10-15 01:55:00,60.0,57.4,29.96,West,277,1.0,3.0,91,0.00,,,0.00,Wunderground v.1.15,2013-10-15 05:55:00,
2013-10-15 02:00:00,59.9,57.3,29.95,WNW,290,1.0,2.0,91,0.00,,,0.00,Wunderground v.1.15,2013-10-15 06:00:00,
2013-10-15 02:06:00,59.9,57.3,29.95,West,265,1.0,2.0,91,0.00,,,0.00,Wunderground v.1.15,2013-10-15 06:06:00,
2013-10-15 02:11:00,59.8,57.2,29.95,WSW,247,1.0,1.0,91,0.00,,,0.00,Wunderground v.1.15,2013-10-15 06:11:00,
2013-10-15 02:17:00,59.8,57.2,29.95,WSW,247,1.0,1.0,91,0.00,,,0.00,Wunderground v.1.15,2013-10-15 06:17:00,
2013-10-15 02:23:00,59.7,57.1,29.95,WSW,247,0.0,2.0,91,0.00,,,0.00,Wunderground v.1.15,2013-10-15 06:23:00,
2013-10-15 02:28:00,59.6,57.0,29.95,WSW,244,0.0,2.0,91,0.00,,,0.00,Wunderground v.1.15,2013-10-15 06:28:00,
2013-10-15 02:34:00,59.6,57.0,29.96,WSW,244,1.0,2.0,91,0.00,,,0.00,Wunderground v.1.15,2013-10-15 06:34:00,
2013-10-15 02:40:00,59.5,56.9,29.96,WSW,243,1.0,1.0,91,0.00,,,0.00,Wunderground v.1.15,2013-10-15 06:40:00,
2013-10-15 02:48:00,59.5,56.9,29.96,SSW,207,1.0,1.0,91,0.00,,,0.00,Wunderground v.1.15,2013-10-15 06:48:00,
2013-10-15 02:54:00,59.4,57.1,29.96,West,259,1.0,1.0,92,0.00,,,0.00,Wunderground v.1.15,2013-10-15 06:54:00,
2013-10-15 03:00:00,59.4,56.8,29.96,WNW,298,0.0,0.0,91,0.00,,,0.00,Wunderground v.1.15,2013-10-15 07:00:00,
2013-10-15 03:06:00,59.4,57.1,29.96,West,260,0.0,2.0,92,0.00,,,0.00,Wunderground v.1.15,2013-10-15 07:06:00,
2013-10-15 03:11:00,59.3,56.7,29.96,WSW,254,0.0,1.0,91,0.00,,,0.00,Wunderground v.1.15,2013-10-15 07:11:00,
2013-10-15 03:16:00,59.3,56.7,29.96,WSW,252,0.0,1.0,91,0.00,,,0.00,Wunderground v.1.15,2013-10-15 07:16:00,
2013-10-15 03:22:00,59.3,56.7,29.96,WSW,252,0.0,1.0,91,0.00,,,0.00,Wunderground v.1.15,2013-10-15 07:22:00,
2013-10-15 03:28:00,59.2,56.6,29.96,WSW,246,0.0,1.0,91,0.00,,,0.00,Wunderground v.1.15,2013-10-15 07:28:00,
2013-10-15 03:34:00,59.2,56.6,29.95,WSW,246,0.0,0.0,91,0.00,,,0.00,Wunderground v.1.15,2013-10-15 07:34:00,
2013-10-15 03:39:00,59.2,56.9,29.95,SW,233,0.0,1.0,92,0.00,,,0.00,Wunderground v.1.15,2013-10-15 07:39:00,
2013-10-15 03:44:00,59.1,56.8,29.94,SW,233,0.0,1.0,92,0.00,,,0.00,Wunderground v.1.15,2013-10-15 07:44:00,
2013-10-15 03:49:00,59.0,56.7,29.94,SW,233,0.0,0.0,92,0.00,,,0.00,Wunderground v.1.15,2013-10-15 07:49:00,
2013-10-15 03:55:00,58.9,56.6,29.94,SW,230,0.0,0.0,92,0.00,,,0.00,Wunderground v.1.15,2013-10-15 07:55:00,
2013-10-15 04:00:00,58.8,56.5,29.94,WSW,246,0.0,0.0,92,0.00,,,0.00,Wunderground v.1.15,2013-10-15 08:00:00,
2013-10-15 04:06:00,58.8,56.5,29.94,WSW,253,0.0,0.0,92,0.00,,,0.00,Wunderground v.1.15,2013-10-15 08:06:00,
2013-10-15 04:11:00,58.7,56.4,29.94,WSW,253,0.0,0.0,92,0.00,,,0.00,Wunderground v.1.15,2013-10-15 08:11:00,
2013-10-15 04:17:00,58.7,56.4,29.94,WSW,253,0.0,0.0,92,0.00,,,0.00,Wunderground v.1.15,2013-10-15 08:17:00,
2013-10-15 04:22:00,58.5,56.2,29.94,WSW,252,0.0,1.0,92,0.00,,,0.00,Wunderground v.1.15,2013-10-15 08:22:00,
2013-10-15 04:27:00,58.5,56.2,29.93,West,268,0.0,2.0,92,0.00,,,0.00,Wunderground v.1.15,2013-10-15 08:27:00,
2013-10-15 04:33:00,58.4,56.1,29.93,SW,220,1.0,1.0,92,0.00,,,0.00,Wunderground v.1.15,2013-10-15 08:33:00,
2013-10-15 04:39:00,58.3,56.0,29.93,WSW,248,1.0,2.0,92,0.00,,,0.00,Wunderground v.1.15,2013-10-15 08:39:00,
2013-10-15 04:44:00,58.2,55.9,29.93,WSW,248,1.0,1.0,92,0.00,,,0.00,Wunderground v.1.15,2013-10-15 08:44:00,
2013-10-15 04:49:00,58.2,55.9,29.93,WSW,248,0.0,0.0,92,0.00,,,0.00,Wunderground v.1.15,2013-10-15 08:49:00,
2013-10-15 04:52:00,58.2,56.2,29.93,WSW,248,0.0,0.0,93,0.00,,,0.00,Wunderground v.1.15,2013-10-15 08:52:00,
2013-10-15 04:58:00,58.2,56.2,29.93,WSW,248,0.0,1.0,93,0.00,,,0.00,Wunderground v.1.15,2013-10-15 08:58:00,
2013-10-15 05:03:00,58.1,56.1,29.93,WSW,248,0.0,0.0,93,0.00,,,0.00,Wunderground v.1.15,2013-10-15 09:03:00,
2013-10-15 05:09:00,58.0,56.0,29.93,SW,230,0.0,1.0,93,0.00,,,0.00,Wunderground v.1.15,2013-10-15 09:09:00,
2013-10-15 05:15:00,57.9,55.9,29.93,SW,230,0.0,0.0,93,0.00,,,0.00,Wunderground v.1.15,2013-10-15 09:15:00,
2013-10-15 05:20:00,57.9,55.9,29.93,SW,230,0.0,0.0,93,0.00,,,0.00,Wunderground v.1.15,2013-10-15 09:20:00,
2013-10-15 05:26:00,57.8,55.8,29.93,SW,230,0.0,0.0,93,0.00,,,0.00,Wunderground v.1.15,2013-10-15 09:26:00,
2013-10-15 05:31:00,57.8,55.8,29.93,SW,230,0.0,0.0,93,0.00,,,0.00,Wunderground v.1.15,2013-10-15 09:31:00,
2013-10-15 05:36:00,57.9,55.9,29.94,SW,230,0.0,0.0,93,0.00,,,0.00,Wunderground v.1.15,2013-10-15 09:36:00,
2013-10-15 05:42:00,57.8,55.8,29.94,SW,230,0.0,0.0,93,0.00,,,0.00,Wunderground v.1.15,2013-10-15 09:42:00,
2013-10-15 05:48:00,57.8,56.1,29.94,SW,230,0.0,0.0,94,0.00,,,0.00,Wunderground v.1.15,2013-10-15 09:48:00,
2013-10-15 05:54:00,57.8,56.1,29.94,SW,230,0.0,0.0,94,0.00,,,0.00,Wunderground v.1.15,2013-10-15 09:54:00,
2013-10-15 06:00:00,57.7,56.0,29.94,SW,230,0.0,0.0,94,0.00,,,0.00,Wunderground v.1.15,2013-10-15 10:00:00,
2013-10-15 06:06:00,57.7,56.0,29.93,SW,230,0.0,0.0,94,0.00,,,0.00,Wunderground v.1.15,2013-10-15 10:06:00,
2013-10-15 06:11:00,57.7,56.0,29.94,SW,230,0.0,0.0,94,0.00,,,0.00,Wunderground v.1.15,2013-10-15 10:11:00,
2013-10-15 06:17:00,57.7,56.0,29.94,SW,230,0.0,0.0,94,0.00,,,0.00,Wunderground v.1.15,2013-10-15 10:17:00,
2013-10-15 06:22:00,57.7,56.0,29.94,SW,225,0.0,0.0,94,0.00,,,0.00,Wunderground v.1.15,2013-10-15 10:22:00,
2013-10-15 06:28:00,57.7,56.0,29.94,SW,225,0.0,0.0,94,0.00,,,0.00,Wunderground v.1.15,2013-10-15 10:28:00,
2013-10-15 06:33:00,57.7,56.0,29.94,SW,225,0.0,0.0,94,0.00,,,0.00,Wunderground v.1.15,2013-10-15 10:33:00,
2013-10-15 06:39:00,57.6,56.2,29.94,SW,225,0.0,0.0,95,0.00,,,0.00,Wunderground v.1.15,2013-10-15 10:39:00,
2013-10-15 06:44:00,57.6,56.2,29.94,SW,225,0.0,0.0,95,0.00,,,0.00,Wunderground v.1.15,2013-10-15 10:44:00,
2013-10-15 06:49:00,57.6,56.2,29.94,SW,225,0.0,0.0,95,0.00,,,0.00,Wunderground v.1.15,2013-10-15 10:49:00,
2013-10-15 06:55:00,57.6,56.2,29.94,SW,225,0.0,0.0,95,0.00,,,0.00,Wunderground v.1.15,2013-10-15 10:55:00,
2013-10-15 07:00:00,57.5,56.1,29.93,SW,225,0.0,0.0,95,0.00,,,0.00,Wunderground v.1.15,2013-10-15 11:00:00,
2013-10-15 07:06:00,57.4,56.0,29.94,SW,225,0.0,0.0,95,0.00,,,0.00,Wunderground v.1.15,2013-10-15 11:06:00,
2013-10-15 07:12:00,57.4,56.0,29.94,SW,225,0.0,0.0,95,0.00,,,0.00,Wunderground v.1.15,2013-10-15 11:12:00,
2013-10-15 07:17:00,57.3,55.9,29.94,SW,225,0.0,0.0,95,0.00,,,0.00,Wunderground v.1.15,2013-10-15 11:17:00,
2013-10-15 07:22:00,57.3,55.9,29.94,SW,225,0.0,0.0,95,0.00,,,0.00,Wunderground v.1.15,2013-10-15 11:22:00,
2013-10-15 07:28:00,57.3,55.9,29.94,SW,225,0.0,0.0,95,0.00,,,0.00,Wunderground v.1.15,2013-10-15 11:28:00,
2013-10-15 07:34:00,57.2,55.8,29.94,SW,225,0.0,0.0,95,0.00,,,0.00,Wunderground v.1.15,2013-10-15 11:34:00,
2013-10-15 07:40:00,57.2,55.8,29.94,SW,225,0.0,0.0,95,0.00,,,0.00,Wunderground v.1.15,2013-10-15 11:40:00,
2013-10-15 07:45:00,57.2,55.8,29.94,SW,225,0.0,0.0,95,0.00,,,0.00,Wunderground v.1.15,2013-10-15 11:45:00,
2013-10-15 07:50:00,57.1,55.7,29.94,SW,225,0.0,0.0,95,0.00,,,0.00,Wunderground v.1.15,2013-10-15 11:50:00,
2013-10-15 07:55:00,57.1,55.7,29.94,SW,225,0.0,0.0,95,0.00,,,0.00,Wunderground v.1.15,2013-10-15 11:55:00,
2013-10-15 08:00:00,57.0,55.6,29.94,WNW,284,0.0,0.0,95,0.00,,,0.00,Wunderground v.1.15,2013-10-15 12:00:00,
2013-10-15 08:06:00,57.0,55.6,29.94,WNW,284,0.0,0.0,95,0.00,,,0.00,Wunderground v.1.15,2013-10-15 12:06:00,
2013-10-15 08:11:00,57.0,55.6,29.94,WNW,284,0.0,0.0,95,0.00,,,0.00,Wunderground v.1.15,2013-10-15 12:11:00,
2013-10-15 08:17:00,57.0,55.6,29.94,WNW,284,0.0,0.0,95,0.00,,,0.00,Wunderground v.1.15,2013-10-15 12:17:00,
2013-10-15 08:23:00,57.0,55.6,29.94,WNW,284,0.0,1.0,95,0.00,,,0.00,Wunderground v.1.15,2013-10-15 12:23:00,
2013-10-15 08:29:00,57.1,55.7,29.95,WNW,284,0.0,1.0,95,0.00,,,0.00,Wunderground v.1.15,2013-10-15 12:29:00,
2013-10-15 08:34:00,57.1,55.4,29.95,WNW,284,0.0,0.0,94,0.00,,,0.00,Wunderground v.1.15,2013-10-15 12:34:00,
2013-10-15 08:40:00,57.2,55.5,29.95,WNW,284,0.0,0.0,94,0.00,,,0.00,Wunderground v.1.15,2013-10-15 12:40:00,
2013-10-15 08:49:00,57.3,55.3,29.95,WSW,252,0.0,2.0,93,0.00,,,0.00,Wunderground v.1.15,2013-10-15 12:49:00,
2013-10-15 08:54:00,57.4,55.4,29.95,WSW,251,0.0,2.0,93,0.00,,,0.00,Wunderground v.1.15,2013-10-15 12:54:00,
2013-10-15 08:59:00,57.5,55.5,29.95,WSW,251,0.0,0.0,93,0.00,,,0.00,Wunderground v.1.15,2013-10-15 12:59:00,
2013-10-15 09:04:00,57.6,55.3,29.95,WSW,250,0.0,2.0,92,0.00,,,0.00,Wunderground v.1.15,2013-10-15 13:04:00,
2013-10-15 09:10:00,57.7,55.1,29.95,NW,325,0.0,0.0,91,0.00,,,0.00,Wunderground v.1.15,2013-10-15 13:10:00,
2013-10-15 09:16:00,57.9,55.9,29.96,NW,325,0.0,0.0,93,0.00,,,0.00,Wunderground v.1.15,2013-10-15 13:16:00,
2013-10-15 09:21:00,58.0,56.0,29.96,NW,325,0.0,1.0,93,0.00,,,0.00,Wunderground v.1.15,2013-10-15 13:21:00,
2013-10-15 09:27:00,57.9,55.9,29.96,NW,325,0.0,1.0,93,0.00,,,0.00,Wunderground v.1.15,2013-10-15 13:27:00,
2013-10-15 09:33:00,58.0,56.0,29.95,SSE,167,0.0,0.0,93,0.00,,,0.00,Wunderground v.1.15,2013-10-15 13:33:00,
2013-10-15 09:38:00,58.0,56.0,29.95,SSE,167,0.0,1.0,93,0.00,,,0.00,Wunderground v.1.15,2013-10-15 13:38:00,
2013-10-15 09:44:00,57.9,55.3,29.95,SW,218,0.0,2.0,91,0.00,,,0.00,Wunderground v.1.15,2013-10-15 13:44:00,
2013-10-15 09:50:00,58.1,55.8,29.95,SW,218,0.0,0.0,92,0.00,,,0.00,Wunderground v.1.15,2013-10-15 13:50:00,
2013-10-15 09:56:00,58.3,56.0,29.95,SW,218,0.0,2.0,92,0.00,,,0.00,Wunderground v.1.15,2013-10-15 13:56:00,
2013-10-15 10:01:00,58.5,55.6,29.95,SW,218,0.0,0.0,90,0.00,,,0.00,Wunderground v.1.15,2013-10-15 14:01:00,
2013-10-15 10:07:00,58.6,55.1,29.95,SW,218,0.0,1.0,88,0.00,,,0.00,Wunderground v.1.15,2013-10-15 14:07:00,
2013-10-15 10:13:00,58.7,55.2,29.95,WNW,287,0.0,0.0,88,0.00,,,0.00,Wunderground v.1.15,2013-10-15 14:13:00,
2013-10-15 10:19:00,58.9,55.4,29.96,WNW,287,0.0,0.0,88,0.00,,,0.00,Wunderground v.1.15,2013-10-15 14:19:00,
2013-10-15 10:25:00,59.0,55.4,29.96,WNW,287,0.0,0.0,88,0.00,,,0.00,Wunderground v.1.15,2013-10-15 14:25:00,
2013-10-15 10:31:00,59.2,56.0,29.96,WNW,287,0.0,0.0,89,0.00,,,0.00,Wunderground v.1.15,2013-10-15 14:31:00,
2013-10-15 10:36:00,59.2,55.6,29.96,WNW,287,0.0,1.0,88,0.00,,,0.00,Wunderground v.1.15,2013-10-15 14:36:00,
2013-10-15 10:41:00,59.1,55.5,29.96,WNW,288,0.0,0.0,88,0.00,,,0.00,Wunderground v.1.15,2013-10-15 14:41:00,
2013-10-15 10:48:00,59.2,56.0,29.96,WNW,288,0.0,0.0,89,0.00,,,0.00,Wunderground v.1.15,2013-10-15 14:48:00,
2013-10-15 10:54:00,59.3,56.1,29.95,West,263,0.0,1.0,89,0.00,,,0.00,Wunderground v.1.15,2013-10-15 14:54:00,
2013-10-15 11:00:00,59.4,56.2,29.96,West,263,0.0,0.0,89,0.00,,,0.00,Wunderground v.1.15,2013-10-15 15:00:00,
2013-10-15 11:06:00,59.5,55.9,29.95,WSW,251,0.0,1.0,88,0.00,,,0.00,Wunderground v.1.15,2013-10-15 15:06:00,
2013-10-15 11:12:00,59.6,55.7,29.95,WSW,251,0.0,0.0,87,0.00,,,0.00,Wunderground v.1.15,2013-10-15 15:12:00,
2013-10-15 11:18:00,59.8,56.2,29.95,WSW,251,0.0,0.0,88,0.00,,,0.00,Wunderground v.1.15,2013-10-15 15:18:00,
2013-10-15 11:23:00,59.9,56.0,29.95,WSW,251,0.0,0.0,87,0.00,,,0.00,Wunderground v.1.15,2013-10-15 15:23:00,
2013-10-15 11:29:00,59.9,56.0,29.95,WSW,251,0.0,0.0,87,0.00,,,0.00,Wunderground v.1.15,2013-10-15 15:29:00,
2013-10-15 11:34:00,59.9,55.7,29.95,WSW,251,0.0,0.0,86,0.00,,,0.00,Wunderground v.1.15,2013-10-15 15:34:00,
2013-10-15 11:40:00,59.9,55.7,29.95,WSW,251,0.0,0.0,86,0.00,,,0.00,Wunderground v.1.15,2013-10-15 15:40:00,
2013-10-15 11:45:00,59.8,55.3,29.95,WSW,251,0.0,1.0,85,0.00,,,0.00,Wunderground v.1.15,2013-10-15 15:45:00,
2013-10-15 11:51:00,59.9,55.1,29.95,WSW,239,0.0,2.0,84,0.00,,,0.00,Wunderground v.1.15,2013-10-15 15:51:00,
2013-10-15 11:57:00,59.8,55.3,29.95,WSW,238,0.0,2.0,85,0.00,,,0.00,Wunderground v.1.15,2013-10-15 15:57:00,
2013-10-15 12:02:00,59.7,55.5,29.95,SW,235,0.0,0.0,86,0.00,,,0.00,Wunderground v.1.15,2013-10-15 16:02:00,
2013-10-15 12:08:00,59.8,55.6,29.95,SW,235,0.0,0.0,86,0.00,,,0.00,Wunderground v.1.15,2013-10-15 16:08:00,
2013-10-15 12:13:00,59.9,55.7,29.95,SW,235,0.0,0.0,86,0.00,,,0.00,Wunderground v.1.15,2013-10-15 16:13:00,
2013-10-15 12:19:00,60.0,55.5,29.95,SW,235,0.0,1.0,85,0.00,,,0.00,Wunderground v.1.15,2013-10-15 16:19:00,
2013-10-15 12:25:00,60.2,55.7,29.95,SW,235,0.0,0.0,85,0.00,,,0.00,Wunderground v.1.15,2013-10-15 16:25:00,
2013-10-15 12:31:00,60.2,55.3,29.95,SW,235,0.0,0.0,84,0.00,,,0.00,Wunderground v.1.15,2013-10-15 16:31:00,
2013-10-15 12:36:00,60.3,55.4,29.95,WSW,249,0.0,1.0,84,0.00,,,0.00,Wunderground v.1.15,2013-10-15 16:36:00,
2013-10-15 12:42:00,60.5,56.0,29.95,WSW,251,0.0,0.0,85,0.00,,,0.00,Wunderground v.1.15,2013-10-15 16:42:00,
2013-10-15 12:48:00,60.6,55.4,29.95,WSW,251,0.0,0.0,83,0.00,,,0.00,Wunderground v.1.15,2013-10-15 16:48:00,
2013-10-15 12:54:00,60.7,55.5,29.94,NNW,340,0.0,2.0,83,0.00,,,0.00,Wunderground v.1.15,2013-10-15 16:54:00,
2013-10-15 12:59:00,60.8,55.6,29.94,NNW,340,0.0,2.0,83,0.00,,,0.00,Wunderground v.1.15,2013-10-15 16:59:00,
2013-10-15 13:05:00,60.7,55.8,29.93,NNW,340,0.0,0.0,84,0.00,,,0.00,Wunderground v.1.15,2013-10-15 17:05:00,
2013-10-15 13:10:00,60.7,55.8,29.93,NNW,340,0.0,0.0,84,0.00,,,0.00,Wunderground v.1.15,2013-10-15 17:10:00,
2013-10-15 13:16:00,60.6,55.7,29.93,WSW,254,0.0,1.0,84,0.00,,,0.00,Wunderground v.1.15,2013-10-15 17:16:00,
2013-10-15 13:22:00,60.6,56.1,29.92,WSW,254,0.0,0.0,85,0.00,,,0.00,Wunderground v.1.15,2013-10-15 17:22:00,
2013-10-15 13:27:00,60.7,55.8,29.92,WSW,254,0.0,0.0,84,0.00,,,0.00,Wunderground v.1.15,2013-10-15 17:27:00,
2013-10-15 13:33:00,60.8,56.3,29.92,WSW,254,0.0,0.0,85,0.00,,,0.00,Wunderground v.1.15,2013-10-15 17:33:00,
2013-10-15 13:38:00,60.9,56.4,29.91,WSW,254,0.0,0.0,85,0.00,,,0.00,Wunderground v.1.15,2013-10-15 17:38:00,
2013-10-15 13:44:00,61.0,56.5,29.91,WSW,254,0.0,0.0,85,0.00,,,0.00,Wunderground v.1.15,2013-10-15 17:44:00,
2013-10-15 13:50:00,61.1,56.9,29.91,WSW,254,0.0,0.0,86,0.00,,,0.00,Wunderground v.1.15,2013-10-15 17:50:00,
2013-10-15 13:56:00,61.1,56.6,29.91,WSW,254,0.0,3.0,85,0.00,,,0.00,Wunderground v.1.15,2013-10-15 17:56:00,
2013-10-15 14:01:00,61.2,56.7,29.90,WSW,254,0.0,0.0,85,0.00,,,0.00,Wunderground v.1.15,2013-10-15 18:01:00,
2013-10-15 14:07:00,61.1,56.6,29.90,WSW,254,0.0,0.0,85,0.00,,,0.00,Wunderground v.1.15,2013-10-15 18:07:00,
2013-10-15 14:12:00,61.1,56.6,29.90,WSW,254,0.0,2.0,85,0.00,,,0.00,Wunderground v.1.15,2013-10-15 18:12:00,
2013-10-15 14:18:00,60.8,56.3,29.90,WSW,254,0.0,2.0,85,0.00,,,0.00,Wunderground v.1.15,2013-10-15 18:18:00,
2013-10-15 14:23:00,60.8,56.3,29.90,WSW,254,0.0,0.0,85,0.00,,,0.00,Wunderground v.1.15,2013-10-15 18:23:00,
2013-10-15 14:29:00,60.7,56.5,29.90,WSW,254,0.0,0.0,86,0.00,,,0.00,Wunderground v.1.15,2013-10-15 18:29:00,
2013-10-15 14:35:00,60.7,56.5,29.89,WSW,254,0.0,0.0,86,0.00,,,0.00,Wunderground v.1.15,2013-10-15 18:35:00,
2013-10-15 14:41:00,60.7,56.5,29.89,WSW,254,0.0,0.0,86,0.00,,,0.00,Wunderground v.1.15,2013-10-15 18:41:00,
2013-10-15 14:48:00,60.8,56.9,29.89,WSW,254,0.0,0.0,87,0.00,,,0.00,Wunderground v.1.15,2013-10-15 18:48:00,
2013-10-15 14:54:00,60.9,56.7,29.89,WNW,303,0.0,0.0,86,0.00,,,0.00,Wunderground v.1.15,2013-10-15 18:54:00,
2013-10-15 15:00:00,60.9,56.4,29.88,WNW,303,0.0,0.0,85,0.00,,,0.00,Wunderground v.1.15,2013-10-15 19:00:00,
2013-10-15 15:06:00,60.9,56.7,29.88,WNW,303,0.0,0.0,86,0.00,,,0.00,Wunderground v.1.15,2013-10-15 19:06:00,
2013-10-15 15:12:00,61.0,56.8,29.88,WNW,284,0.0,0.0,86,0.00,,,0.00,Wunderground v.1.15,2013-10-15 19:12:00,
2013-10-15 15:18:00,61.2,56.7,29.87,WNW,284,0.0,0.0,85,0.00,,,0.00,Wunderground v.1.15,2013-10-15 19:18:00,
2013-10-15 15:23:00,61.3,56.8,29.87,WNW,283,0.0,0.0,85,0.00,,,0.00,Wunderground v.1.15,2013-10-15 19:23:00,
2013-10-15 15:29:00,61.4,56.8,29.87,WNW,283,0.0,1.0,85,0.00,,,0.00,Wunderground v.1.15,2013-10-15 19:29:00,
2013-10-15 15:35:00,61.7,57.1,29.87,NNW,343,0.0,0.0,85,0.00,,,0.00,Wunderground v.1.15,2013-10-15 19:35:00,
2013-10-15 15:40:00,61.9,57.3,29.87,NNW,343,0.0,0.0,85,0.00,,,0.00,Wunderground v.1.15,2013-10-15 19:40:00,
2013-10-15 15:45:00,61.9,57.0,29.87,NNW,343,0.0,1.0,84,0.00,,,0.00,Wunderground v.1.15,2013-10-15 19:45:00,
2013-10-15 15:51:00,61.8,56.9,29.87,NNW,343,0.0,1.0,84,0.00,,,0.00,Wunderground v.1.15,2013-10-15 19:51:00,
2013-10-15 15:57:00,61.7,56.8,29.87,NNW,343,0.0,1.0,84,0.00,,,0.00,Wunderground v.1.15,2013-10-15 19:57:00,
2013-10-15 16:03:00,61.8,57.2,29.87,NNW,343,0.0,0.0,85,0.00,,,0.00,Wunderground v.1.15,2013-10-15 20:03:00,
2013-10-15 16:09:00,61.9,57.0,29.88,NNW,343,0.0,0.0,84,0.00,,,0.00,Wunderground v.1.15,2013-10-15 20:09:00,
2013-10-15 16:14:00,62.0,57.1,29.87,NNW,343,0.0,1.0,84,0.00,,,0.00,Wunderground v.1.15,2013-10-15 20:14:00,
2013-10-15 16:19:00,62.0,57.1,29.87,NNW,343,0.0,1.0,84,0.00,,,0.00,Wunderground v.1.15,2013-10-15 20:19:00,
2013-10-15 16:24:00,62.0,57.1,29.88,NNW,343,0.0,0.0,84,0.00,,,0.00,Wunderground v.1.15,2013-10-15 20:24:00,
2013-10-15 16:30:00,62.0,57.1,29.87,NNW,343,0.0,0.0,84,0.00,,,0.00,Wunderground v.1.15,2013-10-15 20:30:00,
2013-10-15 16:36:00,62.0,57.1,29.87,NNW,343,0.0,0.0,84,0.00,,,0.00,Wunderground v.1.15,2013-10-15 20:36:00,
2013-10-15 16:42:00,61.8,56.9,29.87,NNW,343,0.0,0.0,84,0.00,,,0.00,Wunderground v.1.15,2013-10-15 20:42:00,
2013-10-15 16:48:00,61.8,57.2,29.87,NNW,343,0.0,0.0,85,0.00,,,0.00,Wunderground v.1.15,2013-10-15 20:48:00,
2013-10-15 16:54:00,61.7,57.1,29.87,NNW,343,0.0,0.0,85,0.00,,,0.00,Wunderground v.1.15,2013-10-15 20:54:00,
2013-10-15 17:00:00,61.6,57.0,29.87,NNW,343,0.0,0.0,85,0.00,,,0.00,Wunderground v.1.15,2013-10-15 21:00:00,
2013-10-15 17:06:00,61.6,57.4,29.87,NNW,343,0.0,0.0,86,0.00,,,0.00,Wunderground v.1.15,2013-10-15 21:06:00,
2013-10-15 17:12:00,61.3,57.1,29.87,NNW,343,0.0,0.0,86,0.00,,,0.00,Wunderground v.1.15,2013-10-15 21:12:00,
2013-10-15 17:17:00,61.1,56.9,29.87,NNW,343,0.0,0.0,86,0.00,,,0.00,Wunderground v.1.15,2013-10-15 21:17:00,
2013-10-15 17:23:00,61.0,56.8,29.87,NNW,343,0.0,0.0,86,0.00,,,0.00,Wunderground v.1.15,2013-10-15 21:23:00,
2013-10-15 17:29:00,61.0,57.1,29.87,NNW,343,0.0,0.0,87,0.00,,,0.00,Wunderground v.1.15,2013-10-15 21:29:00,
2013-10-15 17:35:00,61.0,57.1,29.87,NNW,343,0.0,0.0,87,0.00,,,0.00,Wunderground v.1.15,2013-10-15 21:35:00,
2013-10-15 17:41:00,60.9,57.0,29.87,NNW,343,0.0,0.0,87,0.00,,,0.00,Wunderground v.1.15,2013-10-15 21:41:00,
2013-10-15 17:48:00,60.8,56.9,29.87,NNW,343,0.0,0.0,87,0.00,,,0.00,Wunderground v.1.15,2013-10-15 21:48:00,
2013-10-15 17:54:00,60.7,57.1,29.87,NNW,343,0.0,0.0,88,0.00,,,0.00,Wunderground v.1.15,2013-10-15 21:54:00,
2013-10-15 17:59:00,60.6,57.0,29.87,NNW,343,0.0,0.0,88,0.00,,,0.00,Wunderground v.1.15,2013-10-15 21:59:00,
2013-10-15 18:04:00,60.5,56.9,29.86,NNW,343,0.0,0.0,88,0.00,,,0.00,Wunderground v.1.15,2013-10-15 22:04:00,
2013-10-15 18:10:00,60.5,56.9,29.87,NNW,343,0.0,0.0,88,0.00,,,0.00,Wunderground v.1.15,2013-10-15 22:10:00,
2013-10-15 18:16:00,60.4,56.8,29.87,NNW,343,0.0,0.0,88,0.00,,,0.00,Wunderground v.1.15,2013-10-15 22:16:00,
2013-10-15 18:22:00,60.3,56.7,29.87,NNW,343,0.0,0.0,88,0.00,,,0.00,Wunderground v.1.15,2013-10-15 22:22:00,
2013-10-15 18:28:00,60.2,56.9,29.87,NNW,343,0.0,0.0,89,0.00,,,0.00,Wunderground v.1.15,2013-10-15 22:28:00,
2013-10-15 18:34:00,60.1,56.8,29.87,NNW,343,0.0,0.0,89,0.00,,,0.00,Wunderground v.1.15,2013-10-15 22:34:00,
2013-10-15 18:40:00,59.9,57.0,29.87,NNW,343,0.0,0.0,90,0.00,,,0.00,Wunderground v.1.15,2013-10-15 22:40:00,
2013-10-15 18:45:00,59.8,56.9,29.87,NNW,343,0.0,0.0,90,0.00,,,0.00,Wunderground v.1.15,2013-10-15 22:45:00,
2013-10-15 18:50:00,59.8,57.2,29.87,NNW,343,0.0,0.0,91,0.00,,,0.00,Wunderground v.1.15,2013-10-15 22:50:00,
2013-10-15 18:55:00,59.7,57.1,29.87,NNW,343,0.0,0.0,91,0.00,,,0.00,Wunderground v.1.15,2013-10-15 22:55:00,
2013-10-15 19:00:00,59.6,57.0,29.87,NNW,343,0.0,0.0,91,0.00,,,0.00,Wunderground v.1.15,2013-10-15 23:00:00,
2013-10-15 19:06:00,59.5,56.9,29.87,NNW,343,0.0,0.0,91,0.00,,,0.00,Wunderground v.1.15,2013-10-15 23:06:00,
2013-10-15 19:11:00,59.5,57.2,29.87,NNW,343,0.0,0.0,92,0.00,,,0.00,Wunderground v.1.15,2013-10-15 23:11:00,
2013-10-15 19:16:00,59.4,57.1,29.87,NNW,343,0.0,0.0,92,0.00,,,0.00,Wunderground v.1.15,2013-10-15 23:16:00,
2013-10-15 19:22:00,59.3,57.0,29.87,NNW,343,0.0,0.0,92,0.00,,,0.00,Wunderground v.1.15,2013-10-15 23:22:00,
2013-10-15 19:28:00,59.3,57.0,29.87,NNW,343,0.0,0.0,92,0.00,,,0.00,Wunderground v.1.15,2013-10-15 23:28:00,
2013-10-15 19:34:00,59.2,56.9,29.87,NNW,343,0.0,0.0,92,0.00,,,0.00,Wunderground v.1.15,2013-10-15 23:34:00,
2013-10-15 19:39:00,59.1,56.8,29.87,NNW,343,0.0,0.0,92,0.00,,,0.00,Wunderground v.1.15,2013-10-15 23:39:00,
2013-10-15 19:44:00,59.1,56.8,29.87,NNW,343,0.0,0.0,92,0.00,,,0.00,Wunderground v.1.15,2013-10-15 23:44:00,
2013-10-15 19:49:00,59.0,56.7,29.87,NNW,343,0.0,0.0,92,0.00,,,0.00,Wunderground v.1.15,2013-10-15 23:49:00,
2013-10-15 19:55:00,58.9,56.6,29.87,NNW,343,0.0,0.0,92,0.00,,,0.00,Wunderground v.1.15,2013-10-15 23:55:00,
2013-10-15 20:00:00,58.9,56.9,29.88,NNW,343,0.0,0.0,93,0.00,,,0.00,Wunderground v.1.15,2013-10-16 00:00:00,
2013-10-15 20:06:00,58.9,56.9,29.88,NNW,343,0.0,0.0,93,0.00,,,0.00,Wunderground v.1.15,2013-10-16 00:06:00,
2013-10-15 20:11:00,58.9,56.9,29.88,NNW,343,0.0,0.0,93,0.00,,,0.00,Wunderground v.1.15,2013-10-16 00:11:00,
2013-10-15 20:16:00,58.8,56.8,29.88,NNW,343,0.0,0.0,93,0.00,,,0.00,Wunderground v.1.15,2013-10-16 00:16:00,
2013-10-15 20:22:00,58.8,56.8,29.89,NNW,343,0.0,0.0,93,0.00,,,0.00,Wunderground v.1.15,2013-10-16 00:22:00,
2013-10-15 20:28:00,58.7,56.7,29.89,NNW,343,0.0,0.0,93,0.00,,,0.00,Wunderground v.1.15,2013-10-16 00:28:00,
2013-10-15 20:33:00,58.5,56.5,29.89,NNW,343,0.0,0.0,93,0.00,,,0.00,Wunderground v.1.15,2013-10-16 00:33:00,
2013-10-15 20:39:00,58.3,56.0,29.89,NNW,343,0.0,0.0,92,0.00,,,0.00,Wunderground v.1.15,2013-10-16 00:39:00,
2013-10-15 20:45:00,58.0,56.0,29.88,NNW,343,0.0,0.0,93,0.00,,,0.00,Wunderground v.1.15,2013-10-16 00:45:00,
2013-10-15 20:51:00,57.8,55.8,29.88,NNW,343,0.0,0.0,93,0.00,,,0.00,Wunderground v.1.15,2013-10-16 00:51:00,
2013-10-15 20:56:00,57.6,55.6,29.88,NNW,343,0.0,0.0,93,0.00,,,0.00,Wunderground v.1.15,2013-10-16 00:56:00,
2013-10-15 21:01:00,57.4,55.4,29.89,NNW,343,0.0,0.0,93,0.00,,,0.00,Wunderground v.1.15,2013-10-16 01:01:00,
2013-10-15 21:07:00,57.2,55.2,29.89,NNW,343,0.0,0.0,93,0.00,,,0.00,Wunderground v.1.15,2013-10-16 01:07:00,
2013-10-15 21:13:00,56.9,54.9,29.89,NNW,343,0.0,0.0,93,0.00,,,0.00,Wunderground v.1.15,2013-10-16 01:13:00,
2013-10-15 21:19:00,56.7,54.7,29.89,NNW,343,0.0,0.0,93,0.00,,,0.00,Wunderground v.1.15,2013-10-16 01:19:00,
2013-10-15 21:24:00,56.6,54.6,29.90,NNW,343,0.0,0.0,93,0.00,,,0.00,Wunderground v.1.15,2013-10-16 01:24:00,
2013-10-15 21:29:00,56.4,54.4,29.90,NNW,343,0.0,0.0,93,0.00,,,0.00,Wunderground v.1.15,2013-10-16 01:29:00,
2013-10-15 21:35:00,56.3,54.6,29.90,NNW,343,0.0,0.0,94,0.00,,,0.00,Wunderground v.1.15,2013-10-16 01:35:00,
2013-10-15 21:41:00,56.2,54.5,29.91,NNW,343,0.0,0.0,94,0.00,,,0.00,Wunderground v.1.15,2013-10-16 01:41:00,
2013-10-15 21:48:00,56.0,54.3,29.91,NNW,343,0.0,0.0,94,0.00,,,0.00,Wunderground v.1.15,2013-10-16 01:48:00,
2013-10-15 21:54:00,55.9,54.2,29.91,NNW,343,0.0,0.0,94,0.00,,,0.00,Wunderground v.1.15,2013-10-16 01:54:00,
2013-10-15 21:59:00,55.9,54.5,29.92,NNW,343,0.0,0.0,95,0.00,,,0.00,Wunderground v.1.15,2013-10-16 01:59:00,
2013-10-15 22:05:00,55.8,54.4,29.92,NNW,343,0.0,0.0,95,0.00,,,0.00,Wunderground v.1.15,2013-10-16 02:05:00,
2013-10-15 22:10:00,55.7,54.3,29.92,NNW,343,0.0,0.0,95,0.00,,,0.00,Wunderground v.1.15,2013-10-16 02:10:00,
2013-10-15 22:15:00,55.6,54.2,29.92,NNW,343,0.0,0.0,95,0.00,,,0.00,Wunderground v.1.15,2013-10-16 02:15:00,
2013-10-15 22:21:00,55.5,54.1,29.92,NNW,343,0.0,0.0,95,0.00,,,0.00,Wunderground v.1.15,2013-10-16 02:21:00,
2013-10-15 22:27:00,55.5,54.1,29.92,NNW,343,0.0,0.0,95,0.00,,,0.00,Wunderground v.1.15,2013-10-16 02:27:00,
2013-10-15 22:33:00,55.5,54.1,29.93,NNW,343,0.0,0.0,95,0.00,,,0.00,Wunderground v.1.15,2013-10-16 02:33:00,
2013-10-15 22:38:00,55.4,54.0,29.93,NNW,343,0.0,0.0,95,0.00,,,0.00,Wunderground v.1.15,2013-10-16 02:38:00,
2013-10-15 22:44:00,55.3,53.9,29.93,NNW,343,0.0,0.0,95,0.00,,,0.00,Wunderground v.1.15,2013-10-16 02:44:00,
2013-10-15 22:49:00,55.2,53.8,29.93,NNW,343,0.0,0.0,95,0.00,,,0.00,Wunderground v.1.15,2013-10-16 02:49:00,
2013-10-15 22:55:00,55.2,53.8,29.93,NNW,343,0.0,0.0,95,0.00,,,0.00,Wunderground v.1.15,2013-10-16 02:55:00,
2013-10-15 23:00:00,55.1,53.7,29.92,NNW,343,0.0,0.0,95,0.00,,,0.00,Wunderground v.1.15,2013-10-16 03:00:00,
2013-10-15 23:06:00,55.1,53.7,29.93,NNW,343,0.0,0.0,95,0.00,,,0.00,Wunderground v.1.15,2013-10-16 03:06:00,
2013-10-15 23:12:00,55.0,53.6,29.92,NNW,343,0.0,0.0,95,0.00,,,0.00,Wunderground v.1.15,2013-10-16 03:12:00,
2013-10-15 23:18:00,54.9,53.5,29.92,NNW,343,0.0,0.0,95,0.00,,,0.00,Wunderground v.1.15,2013-10-16 03:18:00,
2013-10-15 23:23:00,54.9,53.8,29.92,NNW,343,0.0,0.0,96,0.00,,,0.00,Wunderground v.1.15,2013-10-16 03:23:00,
2013-10-15 23:29:00,54.9,53.8,29.91,NNW,343,0.0,0.0,96,0.00,,,0.00,Wunderground v.1.15,2013-10-16 03:29:00,
2013-10-15 23:35:00,54.9,53.8,29.91,NNW,343,0.0,0.0,96,0.00,,,0.00,Wunderground v.1.15,2013-10-16 03:35:00,
2013-10-15 23:41:00,54.9,53.8,29.91,NNW,343,0.0,0.0,96,0.00,,,0.00,Wunderground v.1.15,2013-10-16 03:41:00,
2013-10-15 23:48:00,54.9,53.8,29.91,NNW,343,0.0,0.0,96,0.00,,,0.00,Wunderground v.1.15,2013-10-16 03:48:00,
2013-10-15 23:54:00,54.9,53.8,29.91,NNW,343,0.0,0.0,96,0.00,,,0.00,Wunderground v.1.15,2013-10-16 03:54:00,